Powrót do katalogu

FENGYUN 1C DEB

AktywnySSO
NORAD 31522·DEBRIS·🇨🇳 China

Wystrzelony May 10, 1999 z Taiyuan Satellite Launch Center

Loading…

Następne Przeloty (najbliższe 24 godziny)

TLE

ŚwieżeSource: Space-Track

Epoka: Sep 13, 2026, 12:02 UTC

1 31522U 99025BXM 26256.50146095  .00000211  00000-0  15721-3 0  9992
2 31522  98.6972 268.1862 0043758 148.1910 212.1915 14.04414978988525

Śledź FENGYUN 1C DEB w czasie rzeczywistym z AllMySat

Download on the App Store